Regional Weather Roundup
Issued by NWS San Diego, CA

Home | Current Version | Previous Version | Text Only | Print | Product List | Glossary On
Versions: 1 2 3 4 5 6 7 8 9 10 11 12 13 14 15 16 17 18 19 20 21 22 23 24 25 26 27 28 29 30 31 32 33 34 35 36 37 38 39 40 41 42 43 44 45 46 47 48 49 50
916
ASUS46 KSGX 202211
RWRSGX

SAN DIEGO HOURLY WEATHER ROUNDUP
NATIONAL WEATHER SERVICE SAN DIEGO CA
200 PM PST MON FEB 20 2017

NOTE: "FAIR" INDICATES FEW OR NO CLOUDS BELOW 12,000 FEET WITH NO
SIGNIFICANT WEATHER AND/OR OBSTRUCTIONS TO VISIBILITY.

CAZ042-043-060-061-PZZ750-775-202300-

GREATER SAN DIEGO AREA

CITY           SKY/WX    TMP DP  RH WIND       PRES   REMARKS
SAN DIEGO AP   MOSUNNY   67  49  52 W7        30.25S
NATIONAL CITY    N/A     68  56  66 W1        30.23F
CHULA VISTA      N/A     67  56  66 W13       30.16S
IMPERIAL BEACH SUNNY    N/A N/A N/A W10       30.24S
BROWN FIELD    MOSUNNY   67  54  63 W9        30.22F
MIRAMAR MCAS   MOSUNNY   69  54  58 W9        30.23S
MONTGOMERY FLD MOSUNNY   66  51  58 W9        30.23F

$$

NORTH SAN DIEGO COUNTY

CITY           SKY/WX    TMP DP  RH WIND       PRES   REMARKS
CAMP PENDLETON SUNNY     65  53  65 SW9       30.22F
OCEANSIDE AP   SUNNY     65  54  67 W9        30.22F
OCEANSIDE HBR    N/A     62  53  72 NW6       30.26F
VISTA            N/A     65  55  69 W1        30.21F
CARLSBAD       SUNNY     64  52  64 W9        30.22F
DEL MAR          N/A     65  54  68 CALM      30.26F
LA JOLLA SCRIP   N/A     62  55  78 SW3       30.24F
FALLBROOK        N/A     66  58  75 SW2       30.20F
ESCONDIDO        N/A     68  57  67 SW3       30.24F
SAN MARCOS       N/A     66  53  63 NW8       30.24F
POWAY            N/A     70  54  56 SW3       30.25

$$

EAST SAN DIEGO COUNTY

CITY           SKY/WX    TMP DP  RH WIND       PRES   REMARKS
RAMONA         CLOUDY    64  54  69 W7        30.23S
SANTEE LAKES     N/A     69  56  62 CALM      30.22F
LA MESA          N/A     67  54  63 W6        30.17F
JAMUL            N/A     64  54  69 CALM      30.24F
DESCANSO N       N/A     58  51  79 W6        30.24S
CAMPO            N/A     63  52  67 W9        30.19F

$$

ORANGE COUNTY AND THE LOS ANGELES BASIN

CITY           SKY/WX    TMP DP  RH WIND       PRES   REMARKS
JOHN WAYNE AP  PTSUNNY   64  53  67 SW8       30.23F
LAGUNA BEACH     N/A     64  55  72 S2        30.19F
LAKE FOREST FR   N/A     62  50  65 SW3       30.14F
HUNTINGTON BCH   N/A     65  56  71 S3        30.25F
LOS ALAMITOS   CLOUDY    64  56  73 S8        30.23F
FULLERTON      CLOUDY    65  53  65 CALM      30.22F
LONG BEACH     CLOUDY    62  52  69 SE7       30.23F
L.A. AP        CLOUDY    60  54  80 E10       30.23F
L.A. DOWNTOWN  CLOUDY    63  53  70 CALM      30.23F

$$

THE INLAND EMPIRE

CITY           SKY/WX    TMP DP  RH WIND       PRES   REMARKS
CORONA         CLOUDY    62  52  69 W6        30.24F
CHINO          PTSUNNY   65  54  67 S3        30.24F
ONTARIO        PTSUNNY   61  51  70 W5        30.23F
SAN BERNARDINO CLOUDY    61  50  67 CALM      30.23
RIVERSIDE AP   CLOUDY    63  53  70 VRB3      30.22F
MORENO VALLEY    N/A     64  57  78 S3        28.32F
MARCH ARB      PTSUNNY   63  55  73 VRB5      30.22F
HORSETHIEF CYN   N/A     75  62  64 CALM      30.20F
PERRIS           N/A     66  56  69 SW1       30.23F
HEMET EAST       N/A     64  49  57 W1        30.29F
FRENCH VALLEY  CLOUDY    63  50  63 CALM      30.22F
TEMECULA         N/A     67  55  66 CALM      30.25F

$$

SAN BERNARDINO AND RIVERSIDE COUNTY MOUNTAINS

CITY           SKY/WX    TMP DP  RH WIND       PRES   REMARKS
BIG BEAR AP    PTSUNNY   48  37  66 W13G20    30.27S
ANGELUS OAKS     N/A     51  45  78 CALM      30.22F
PINE COVE        N/A     50  43  76 N3        30.28F

$$

SOUTHERN DESERT INCLUDING THE COACHELLA VALLEY

CITY           SKY/WX    TMP DP  RH WIND       PRES   REMARKS
PALM SPRINGS   MOSUNNY   69  53  56 SE6       30.20F
PALM DESERT      N/A     71  51  48 CALM        N/A
THERMAL        SUNNY     69  50  50 VRB3      30.18F
BLYTHE         SUNNY     69  51  52 S10       30.19F
IMPERIAL AP    SUNNY     72  54  53 VRB6      30.18F
EL CENTRO NAS  SUNNY     72  51  47 VRB6      30.19F
YUMA AZ        SUNNY     70  51  51 SE8       30.20
MEXICALI       MOSUNNY   70  54  56 SE8       30.20F

$$

UPPER DESERT

CITY           SKY/WX    TMP DP  RH WIND       PRES   REMARKS
VICTORVILLE AP MOSUNNY   64  46  52 S16       30.17F
HESPERIA         N/A     62  48  59 SW13      30.30S
PALMDALE       SUNNY     61  50  67 SW24G36   30.15F
LANCASTER      SUNNY     58  49  72 W20       30.19S
EDWARDS AFB    SUNNY     62  49  63 SW25      30.14S
DAGGETT        PTSUNNY   69  48  47 NE6       30.13F
29 PALMS N     MOSUNNY   65  46  50 SE12      30.24F
NEEDLES        CLOUDY    67  50  54 SE9       30.20F

$$

REGIONAL REPORTS

CITY           SKY/WX    TMP DP  RH WIND       PRES   REMARKS
SANTA BARBARA  CLOUDY    58  55  90 SE12      30.22R
SANDBERG       LGT RAIN  47  46  97 S23G32    30.17F VSB<1/4
LAS VEGAS NV   PTSUNNY   66  45  46 S12G23    30.09F
PHOENIX AZ     PTSUNNY   67  45  45 SW3       30.21F
TIJUANA        MOSUNNY   66  50  55 W7        30.25F
ENSENADA NW      N/A     64  32  29 W6        30.19

$$

OFFSHORE ISLANDS

CITY           SKY/WX    TMP DP  RH WIND       PRES   REMARKS
CATALINA ARPT  CLOUDY    54  54 100 S10       30.22F
SAN NICOLAS IS CLOUDY   N/A N/A N/A S8        30.21S FOG

$$

MARINE AND OFFSHORE BUOY REPORTS

STATION/POSITION SKY/WX   TEMP    WIND        PRES    VSBY  SWELL
                          AIR SEA DIR/SP/G                  HT/PER/DIR
                          (F)     (DEG/KT/KT) (MB)    (MI)  (FT/S/D)
TANNER BANKS               60 60  170/ 12/ 14 1022.5F         7/270/12
S CLEMENTE BASIN           59 60  180/  8/ 10 1023.8F         5/250/13
SAN NICOLAS IS.               57                N/A           7/300/17
SO. S. ROSA ISLA           59 57  190/ 14/ 17 1021.9F         8/290/16
W. S. BARBARA CH           56 55  110/ 17/ 21 1022.0R         7/270/16
M. S. BARBARA CH                  100/ 19/ 25 1023.5F
S. MONICA BASIN            57 58  130/ 14/ 17 1023.3F         5/250/13
S PEDRO CHANNEL               59                N/A           3/260/13
CMP PENDLETON NS              61                N/A           2/230/13
OCEANSIDE OFFSHR              62                N/A           3/230/13
TORREY PINES OTR              62                N/A           3/270/11
POINT LOMA SOUTH              62                N/A           3/250/13

$$





USA.gov is the U.S. government's official web portal to all federal, state and local government web resources and services.